This is the latest recevied weather packets stored in our database for station/object WX5HOT. If no packets are shown the sender has not sent any weather packets the latest 10 day(s).
| Time | Temp. | Humidity | Pressure | Rain* | Wind** | Luminosity | Snow |
|---|---|---|---|---|---|---|---|
| 1777058756 | 15° C | 99% | 1059.2 hPa | 0 mm | - | 256 W/m² | - |
| 1777058452 | 15° C | 99% | 1059.3 hPa | 0 mm | - | 199 W/m² | - |
| 1777058150 | 14.44° C | 99% | 1059.3 hPa | 0 mm | - | 186 W/m² | - |
| 1777057844 | 14.44° C | 99% | 1059.1 hPa | 0 mm | - | 410 W/m² | - |
| 1777057539 | 15° C | 99% | 1059.2 hPa | 0 mm | - | 298 W/m² | - |
| 1777057236 | 15° C | 99% | 1059.2 hPa | 0 mm | - | 314 W/m² | - |
| 1777056932 | 15° C | 99% | 1059.4 hPa | 0 mm | - | 247 W/m² | - |
| 1777056630 | 14.44° C | 99% | 1059.6 hPa | 0 mm | - | 352 W/m² | - |
| 1777056326 | 14.44° C | 99% | 1059.6 hPa | 0 mm | - | 214 W/m² | - |
| 1777056023 | 14.44° C | 99% | 1059.4 hPa | 0 mm | - | 407 W/m² | - |
| 1777055719 | 14.44° C | 99% | 1059.4 hPa | 0 mm | - | 559 W/m² | - |
| 1777055416 | 14.44° C | 99% | 1059.5 hPa | 0 mm | - | 274 W/m² | - |
| 1777055109 | 14.44° C | 99% | 1059.5 hPa | 0 mm | - | 212 W/m² | - |
| 1777054803 | 14.44° C | 99% | 1059.7 hPa | 0 mm | - | 216 W/m² | - |
| 1777054501 | 14.44° C | 99% | 1059.7 hPa | 0 mm | - | 296 W/m² | - |
| 1777054199 | 14.44° C | 99% | 1059.8 hPa | 0 mm | - | 325 W/m² | - |
| 1777053896 | 13.89° C | 99% | 1059.6 hPa | 0 mm | - | 246 W/m² | - |
| 1777053591 | 13.89° C | 99% | 1059.6 hPa | 1.27 mm | - | 227 W/m² | - |
| 1777053291 | 13.89° C | 99% | 1060.2 hPa | 1.27 mm | - | 142 W/m² | - |
| 1777052988 | 14.44° C | 99% | 1060.5 hPa | 1.78 mm | - | 46 W/m² | - |
| 1777052684 | 14.44° C | 99% | 1060.7 hPa | 3.05 mm | - | 47 W/m² | - |
| 1777052383 | 14.44° C | 99% | 1060.4 hPa | 1.27 mm | - | 83 W/m² | - |
| 1777052081 | 14.44° C | 99% | 1060.1 hPa | 1.78 mm | - | 157 W/m² | - |
* Rain latest hour (hover to see other rain measurements)
** Current wind speed in m/s (hover to see current wind gust speed)